User: anonymous   Login
Location: Bonningues
(50.7927°N, 2.0150°E)
Time: 12:28:18
(UTC+00:00)
Language:

Aureole 2 - Orbit

View from above orbital plane
View from above orbital plane
View from above satellite
View from above satellite

Ground track
Ground track

The orbit data is extracted from the following two-line orbital elements,

1  7003U 73107A   20293.88548092 +.00002434 +00000-0 +95350-4 0  9997
2  7003 073.9229 129.3754 0380453 197.5827 161.1883 14.78988959393637
Epoch (UTC): 19 October 2020 21:15:05
Eccentricity: 0.0380453
inclination: 73.9229°
perigee height: 366 km
apogee height: 899 km
right ascension of ascending node: 129.3754°
argument of perigee: 197.5827°
revolutions per day: 14.78988959
mean anomaly at epoch: 161.1883°
orbit number at epoch: 39363

The dashed part of the orbit path shows where the satellite is in the earth's shadow,  

DLR